Location: Bartshausen
(51.8454°N, 9.8167°E)
Time: 00:40:24
(UTC+00:00)

Daily predictions for brighter satellites

Satellite Brightness Start Highest point End
(mag) Time Altitude Azimuth Time Altitude Azimuth Time Altitude Azimuth
Cosmos 2333 Rocket 4.3 01:57:28 23° NE 01:57:28 23° NE 01:59:42 10° NE
CENTAUR R/B 4.1 02:05:13 34° N 02:05:13 34° N 02:11:38 10° ENE
ACS3 Solar Sail 3.3 01:59:30 10° NNE 02:03:45 31° ENE 02:03:45 31° ENE
USA 234 4.4 02:07:53 10° ESE 02:11:31 36° ESE 02:11:31 36° ESE
Cosmos 2360 Rocket 3.9 02:17:23 29° ENE 02:17:23 29° ENE 02:20:24 10° NE
Cosmos 2322 Rocket 3.9 02:17:43 29° NE 02:17:43 29° NE 02:20:37 10° NE
SL-16 R/B 3.9 02:24:11 27° NNE 02:24:11 27° NNE 02:26:40 10° NNE
Cosmos 1943 Rocket 4.0 02:24:45 24° NNE 02:25:16 24° NE 02:29:44 10° E
ADEOS Rocket 3.5 02:32:26 10° NNE 02:38:45 64° E 02:38:45 64° E
CZ-2C R/B 4.3 02:36:50 10° NE 02:41:05 27° E 02:42:20 24° ESE
BREEZE-M DEB (TANK) 4.5 02:53:28 65° SW 02:53:51 66° SSW 03:16:15 10° SE
Cosmos 2219 Rocket 2.9 02:55:06 51° E 02:55:06 51° E 03:00:11 10° NE
USA 59 Rocket 2.7 03:05:02 11° E 03:05:02 11° E 03:05:12 10° E
CZ-2D R/B 4.1 03:13:08 10° N 03:14:24 17° N 03:14:24 17° N
USA 267 3.3 03:12:39 10° ENE 03:19:12 72° SE 03:20:18 60° SSW
Cosmos 2333 4.2 03:21:23 74° NNE 03:21:23 74° NNE 03:26:41 10° NNE
Cosmos 2150 Rocket 4.1 03:23:19 71° NE 03:23:19 71° NE 03:28:05 10° NNE
Cosmos 2228 Rocket 3.8 03:26:01 50° E 03:26:01 50° E 03:30:17 10° NNE
Cosmos 1980 Rocket 4.1 03:27:56 17° NNW 03:27:56 17° NNW 03:30:29 10° NNE
Cosmos 1269 Rocket 4.1 03:29:01 63° N 03:29:46 74° ENE 03:35:03 10° SSE
H-2A R/B 3.4 03:25:48 10° N 03:28:05 26° N 03:28:05 26° N
Cosmos 2278 Rocket 2.8 03:29:48 27° NNW 03:32:43 53° NE 03:38:15 10° SE
USA 238 DEB 3.9 03:33:04 48° NW 03:33:25 48° NNW 03:40:15 10° NE
USA 238 3.9 03:33:10 48° NW 03:33:31 49° NNW 03:40:21 10° NE
Cosmos 2173 Rocket 4.1 03:30:33 10° N 03:36:40 72° ENE 03:42:43 10° SSE
Cosmos 2333 Rocket 2.8 03:39:31 42° NNW 03:39:31 42° NNW 03:44:09 10° NNE
ADEOS II 3.9 03:38:11 10° N 03:39:55 19° NNW 03:39:55 19° NNW
Cosmos 1153 Rocket 4.3 03:39:03 10° NNW 03:45:11 67° W 03:51:19 10° S
COSMOS 2455 2.9 03:45:06 54° NW 03:45:19 55° NW 03:51:16 10° NE
Lacrosse 5 rocket 2.6 03:46:58 28° NE 03:46:58 28° NE 03:48:48 10° ENE
Cosmos 1939 Rocket 3.7 03:42:43 10° NNE 03:46:28 46° E 03:48:48 20° SSE
Cosmos 2298 Rocket 3.9 03:46:57 72° W 03:47:07 73° WNW 03:52:28 10° NNE
ACS3 Solar Sail 1.9 03:42:21 10° N 03:47:53 51° WNW 03:47:53 51° WNW
Cosmos 2369 Rocket 4.4 03:45:31 10° NNW 03:49:36 20° NNE 03:53:42 10° ENE
Resurs 1-4 Rocket 4.2 03:47:15 10° N 03:48:13 14° NNW 03:48:13 14° NNW
BlueWalker 3 3.4 03:53:51 27° SSE 03:53:51 27° SSE 03:55:45 10° SE
CENTAUR R/B 4.0 03:52:18 22° NW 03:56:48 41° NNE 04:05:05 10° E
USA 234 3.6 03:51:39 10° SSE 03:57:51 44° SW 03:58:53 41° WSW
Cosmos 2123 Rocket 4.5 03:52:57 10° S 03:59:02 61° E 04:05:08 10° NNE
Cosmos 2360 Rocket 2.6 03:59:09 42° NW 03:59:09 42° NW 04:04:30 10° NNE
Cosmos 2322 Rocket 2.8 03:59:31 39° NW 03:59:31 39° NW 04:04:41 10° NNE
Helios 1A Rocket 3.5 03:57:48 10° SE 04:01:03 44° ENE 04:02:41 24° N
Gbstr 26 Del rocket 4.4 03:59:15 29° SSW 04:01:19 44° SSE 04:06:53 10° ENE
Cosmos 44 Rocket 3.4 04:05:02 55° W 04:05:35 59° SW 04:10:39 10° SSE
SL-16 R/B 3.4 04:06:02 26° NNW 04:06:02 26° NNW 04:10:28 10° NNE
Cosmos 2016 Rocket 4.2 04:01:31 10° N 04:07:56 74° E 04:14:17 10° SSE
Cosmos 1943 Rocket 2.0 04:06:17 24° NNW 04:09:45 89° WSW 04:15:16 10° SSE
H-2A R/B 3.2 04:07:43 10° N 04:11:15 65° NW 04:11:15 65° NW
Okean 1-7 3.0 04:13:10 55° NW 04:13:10 55° NW 04:16:59 10° N
Meteor 2-14 Rocket 4.3 04:06:45 10° SSW 04:12:50 70° WNW 04:18:56 10° N
Cosmos 1862 Rocket 4.2 04:15:09 36° NNW 04:15:09 36° NNW 04:18:06 10° N
ARGOS 3.2 04:08:42 10° N 04:13:59 54° WNW 04:16:18 32° SW
PAYLOAD A 4.0 04:09:27 10° N 04:14:52 68° WNW 04:20:08 10° SSW
NOSS 2-1 (C) 3.3 04:14:58 46° S 04:15:33 56° SE 04:18:31 10° NE
Cosmos 1908 Rocket 3.4 04:11:11 10° NNW 04:15:39 82° W 04:20:03 10° S
Cosmos 1140 Rocket 3.4 04:15:56 37° NW 04:17:42 56° WSW 04:22:40 10° S
CZ-2C R/B 2.5 04:14:31 10° N 04:19:21 52° WNW 04:21:32 30° SW
NOSS 2-1 (D) 3.0 04:19:05 54° S 04:19:36 66° SE 04:22:35 10° NE
Timation 2 Rocket 4.0 04:14:49 19° NW 04:19:40 66° WSW 04:26:00 10° SSE
Cosmos 1300 Rocket 3.8 04:16:03 10° N 04:20:25 68° ENE 04:24:43 10° SSE
ADEOS Rocket 3.8 04:18:29 10° N 04:24:05 33° WNW 04:25:40 30° W
Cosmos 1809 Rocket 4.4 04:18:51 10° SSW 04:24:50 56° WNW 04:30:50 10° N
Cosmos 2061 Rocket 4.3 04:21:45 10° N 04:27:59 70° ENE 04:34:09 10° SSE
NOSS 3-1 (C) 3.0 04:27:25 23° SW 04:30:34 90° NNW 04:36:32 10° NE
Iridium 4 Rocket 2.9 04:26:28 10° N 04:30:55 89° WSW 04:35:05 10° S
Cosmos 2100 Rocket 4.1 04:25:21 10° NNW 04:31:14 49° W 04:37:05 10° SSW
SJ 16-02 2.8 04:27:51 10° N 04:31:51 36° ENE 04:35:49 10° SE
Cosmos 1190 Rocket 4.4 04:32:25 10° NNW 04:37:41 63° ENE 04:42:53 10° SE
Cosmos 2219 Rocket 2.8 04:36:50 29° W 04:38:50 37° NW 04:44:06 10° NNE
IRS-1D 3.4 04:34:27 10° NNE 04:39:29 88° ESE 04:44:25 10° SSW
SL-24 R/B - RUBIN 2 4.2 04:39:23 28° W 04:41:46 48° NW 04:46:26 10° NE
NOSS 0 Rocket 4.0 04:38:52 10° SSW 04:45:00 80° ESE 04:51:11 10° NE
Cosmos 1869 4.1 04:43:27 10° N 04:46:51 45° ENE 04:50:13 10° SSE
COSMOS 2428 2.7 04:42:47 10° SW 04:48:27 68° WNW 04:54:10 10° NNE
Cosmos 371 Rocket 4.1 04:45:51 10° NNW 04:50:36 51° ENE 04:55:18 10° SE
SL-08 RB Rocket 4.4 04:46:50 10° N 04:50:53 32° WNW 04:53:29 18° WSW
USA 59 Rocket -0.8 04:50:47 33° WSW 04:51:54 55° NW 04:54:48 10° NE
Cosmos 1459 Rocket 4.4 04:46:29 10° NNW 04:52:20 40° W 04:58:09 10° SSW
Cosmos 1954 Rocket 4.2 04:50:36 10° NNW 04:55:50 71° ENE 05:01:00 10° SSE
FengYun 1-2 T 4.3 04:50:29 10° N 04:55:56 59° WNW 05:01:24 10° SW
Cosmos 2322 3.8 04:50:25 10° SW 04:55:59 55° NW 05:01:35 10° NNE
COSMO-SKYMED 1 2.5 04:55:14 10° S 04:59:18 57° W 05:03:23 10° NNW
Cosmos 407 Rocket 3.7 04:54:47 10° NW 04:59:36 47° WSW 05:04:28 10° S
SKYMED 2 3.9 04:56:32 10° S 05:00:40 43° W 05:04:51 10° NNW
Cosmos 1484 Rocket 3.3 04:58:35 10° NNE 05:02:07 57° E 05:05:36 10° S
USA 267 3.4 04:55:46 10° ENE 05:02:13 65° NNW 05:07:39 15° W
Cosmos 1725 Rocket 4.2 04:56:52 10° NNW 05:02:52 47° W 05:08:50 10° SSW
Cosmos 2228 Rocket 4.2 05:03:29 20° W 05:04:24 22° WNW 05:07:51 10° NNW
Cosmos 1980 3.7 05:02:31 10° SSW 05:08:11 87° ESE 05:13:53 10° NNE
H-2A R/B 3.9 05:07:25 10° NNW 05:08:34 11° NW 05:08:34 11° NW
Cosmos 1802 Rocket 4.5 05:04:51 10° NNW 05:10:39 38° W 05:16:23 10° SSW
Cosmos 1656 Rocket 3.9 05:07:12 10° NNW 05:12:54 77° ENE 05:18:36 10° SE
Cosmos 1980 Rocket 4.4 05:11:55 10° NNW 05:13:13 11° N 05:14:31 10° NNE
Cosmos 2233 Rocket 4.1 05:08:00 10° NNW 05:14:09 55° W 05:20:14 10° SSW
Cosmos 1400 Rocket 4.2 05:10:45 10° N 05:14:17 37° ENE 05:17:45 10° SE
NOSS 3-1 (A) 3.1 05:09:54 10° SW 05:14:43 84° SE 05:20:41 10° NE
Cosmos 2278 Rocket 2.9 05:11:41 10° NW 05:16:35 33° WSW 05:21:33 10° SSW
Lacrosse 4 Rocket 3.8 05:14:48 10° N 05:16:46 13° NNE 05:18:43 10° NE
Cosmos 2251 Rocket 3.6 05:13:14 10° NNW 05:18:30 58° WSW 05:23:45 10° S
Cosmos 1703 Rocket 4.2 05:14:47 10° SW 05:18:44 33° WNW 05:22:45 10° N
Cosmos 304 Rocket 3.8 05:14:09 10° NNW 05:18:57 85° ENE 05:23:43 10° SSE
Cosmos 1939 Rocket 4.0 05:17:16 10° NNW 05:20:09 20° WNW 05:23:02 10° WSW
NOSS 2-1 (E) 3.1 05:18:53 12° WSW 05:21:45 42° NW 05:24:40 10° NE
Lacrosse 5 rocket 1.9 05:20:39 15° WNW 05:23:00 33° N 05:26:05 10° ENE
Cosmos 2333 Rocket 3.9 05:21:32 12° WNW 05:24:28 16° NNW 05:28:02 10° NNE
Cosmos 2237 Rocket 2.2 05:18:48 10° SW 05:24:29 79° WNW 05:30:11 10° NNE
IGS 5A 3.8 05:21:05 10° NNE 05:25:06 68° ESE 05:29:05 10° S
BlueWalker 3 4.1 05:28:23 10° WSW 05:29:08 10° SW 05:29:52 10° SW
Cosmos 2292 Rocket 4.3 05:25:03 10° SW 05:29:14 41° WNW 05:34:35 10° N
ACS3 Solar Sail 3.4 05:27:22 10° NNW 05:29:51 13° NW 05:32:02 11° WNW
Cosmos 2151 Rocket 4.1 05:26:41 10° N 05:31:11 64° ENE 05:35:37 10° SSE
NOSS 7 (E) 4.1 05:29:14 11° NW 05:32:15 82° SW 05:35:32 10° SE
COSMOS 2455 4.2 05:28:15 11° WNW 05:32:34 23° NNW 05:37:18 10° NNE
Helios 1A Rocket 4.1 05:31:49 10° SW 05:33:59 16° W 05:36:10 10° NW
Meteor 1-24 Rocket 4.3 05:28:55 10° SW 05:34:04 33° WNW 05:39:05 10° N
CZ-4 R/B 4.4 05:30:10 10° N 05:34:41 37° WNW 05:39:06 10° SW
Cosmos 2369 Rocket 2.7 05:29:05 10° NNW 05:34:45 65° NE 05:40:24 10° SE
Cosmos 2242 Rocket 3.5 05:30:42 10° S 05:35:04 85° W 05:39:31 10° N
Cosmos 1624 Rocket 4.3 05:35:37 10° SSW 05:40:47 74° ESE 05:45:58 10° NNE
Cosmos 968 Rocket 3.9 05:35:59 10° NNW 05:41:12 67° ENE 05:46:25 10° SE
Cosmos 2360 Rocket 3.9 05:41:23 10° WNW 05:44:40 15° NNW 05:47:57 10° NNE
Cosmos 2322 Rocket 4.0 05:41:58 10° NW 05:45:05 15° NNW 05:48:12 10° NNE
Meteor 2-5 Rocket 4.5 05:40:05 10° SW 05:45:19 32° WNW 05:50:31 10° N
Cosmos 1420 Rocket 4.0 05:41:19 10° SW 05:46:33 67° WNW 05:51:52 10° NNE
Gbstr 26 Del rocket 3.8 05:42:17 10° WSW 05:47:34 86° SSE 05:54:07 10° E
Cosmos 1674 Rocket 4.2 05:43:40 10° S 05:48:02 63° E 05:52:26 10° NNE
CENTAUR R/B 3.4 05:40:36 10° NW 05:48:36 80° NE 05:57:56 10° SE
ARIANE 5 R/B 3.4 05:44:41 10° NNE 05:49:40 56° ESE 05:54:40 10° S
SL-16 R/B 4.2 05:49:50 10° NW 05:51:58 12° NNW 05:54:06 10° N
Cosmos 1943 Rocket 3.6 05:49:11 10° WNW 05:52:40 17° W 05:56:08 10° SW
